Location: New Plymouth
(39.0670°S, 174.0830°E)
Time: 06:36:02
(UTC+12:00)

Cosmos 2227 - Pass Details

Date: 24 January 2019
Orbit: 833 x 863 km, 71.0° (Epoch: 22 April)

Event Time Altitude Azimuth Distance (km) Brightness Sun altitude
Rises 21:34:37 0° 202° (SSW) 3,442 8.4 -9.0°
Reaches altitude 10° 21:37:07 10° 200° (SSW) 2,496 7.6 -9.4°
Maximum altitude 21:42:51 77° 114° (ESE) 874 4.2 -10.3°
Enters shadow 21:48:17 11° 27° (NNE) 2,378 6.0 -11.1°
